Location: Newark
(50.8547°N, 2.7256°E)
Time: 01:54:13
(UTC+00:00)

Envisat - Pass Details

Date: 02 February 2020
Orbit: 764 x 766 km, 98.1° (Epoch: 21 February)

Event Time Altitude Azimuth Distance (km) Brightness Sun altitude
Rises 19:13:18 0° 222° (SW) 3,224 6.8 -24.0°
Reaches altitude 10° 19:17:07 10° 251° (WSW) 2,305 6.4 -24.6°
Maximum altitude 19:19:11 12° 276° (W) 2,144 6.3 -25.0°
Drops below altitude 10° 19:21:16 10° 300° (WNW) 2,312 6.3 -25.3°
Sets 19:25:08 0° 330° (NNW) 3,245 6.7 -25.9°
